Driggs, ID

6:19 AM MDT on July 29, 2017 (GMT -0600)
Driggs

Weather History for KDIJ - April, 2014

Change the Weather History Date:

Monday, April 7, 2014

  Actual Average (KJAC) Record (KJAC)
Temperature  
Mean Temperature 32 °F -  
Max Temperature 45 °F 46 °F 61 °F (1960)
Min Temperature 19 °F 21 °F 5 °F (1982)
Degree Days  
Heating Degree Days 33    
Moisture  
Dew Point 24 °F    
Average Humidity 70    
Maximum Humidity 82    
Minimum Humidity 50    
Precipitation  
Precipitation 0.00 in - - ()
Sea Level Pressure  
Sea Level Pressure 30.29 in    
Wind  
Wind Speed 5 mph (East)    
Max Wind Speed 10 mph    
Max Gust Speed -    
Visibility 9 miles    
Events      
Averages and records for this station are not official NWS values.
T = Trace of Precipitation, MM = Missing Value Source: NWS Daily Summary

Daily Weather History Graph

Daily Weather History Graph

Search for Another Location

Airport or City:

Trip Planner

Search our weather history database for the weather conditions in past years. The results will help you decide how hot, cold, wet, or windy it might be!

Date:

Astronomy

Apr. 07, 2014 Rise Set
Actual Time 6:55 AM MDT 7:58 PM MDT
Civil Twilight 6:25 AM MDT 8:27 PM MDT
Nautical Twilight 5:50 AM MDT 9:03 PM MDT
Astronomical Twilight 5:14 AM MDT 9:40 PM MDT
Moon 12:49 PM MDT (4/7) 2:43 AM MDT (4/7)
Length of Visible Light 14h 02m
Length of Day
13h 03m
First Quarter, 54% of the Moon is Illuminated
Apr 7
First Quarter
Apr 15
Full
Apr 22
Last Quarter
Apr 29
New
May 6
First Quarter

Hourly Weather History & Observations

Time (MDT) Temp. Windchill Dew Point Humidity Pressure Visibility Wind Dir Wind Speed Gust Speed Precip Events Conditions
12:56 AM 23.0 °F 15.8 °F 17.1 °F 78% 30.22 in 10.0 mi East 5.8 mph - N/A   Clear
1:56 AM 22.1 °F 14.7 °F 16.2 °F 78% 30.21 in 10.0 mi South 5.8 mph - N/A   Clear
2:56 AM 23.0 °F 15.8 °F 16.2 °F 75% 30.25 in 10.0 mi SE 5.8 mph - N/A   Clear
3:56 AM 22.1 °F 13.7 °F 17.1 °F 81% 30.25 in 9.0 mi ESE 6.9 mph - N/A   Clear
4:56 AM 19.0 °F 13.9 °F 14.0 °F 81% 30.26 in 10.0 mi ENE 3.5 mph - N/A   Clear
5:56 AM 23.0 °F - 18.1 °F 82% 30.27 in 10.0 mi Calm Calm - N/A   Clear
6:56 AM 21.0 °F - 15.1 °F 78% 30.31 in 9.0 mi Calm Calm - N/A   Mostly Cloudy
7:56 AM 23.0 °F 18.4 °F 18.1 °F 82% 30.31 in 7.0 mi Variable 3.5 mph - N/A   Overcast
8:56 AM 28.0 °F 22.8 °F 21.0 °F 75% 30.32 in 9.0 mi NNW 4.6 mph - N/A   Overcast
9:56 AM 32.9 °F 29.8 °F 25.2 °F 73% 30.31 in 9.0 mi NNW 3.5 mph - N/A   Overcast
10:56 AM 36.0 °F 33.3 °F 27.1 °F 70% 30.34 in 8.0 mi East 3.5 mph - N/A   Mostly Cloudy
11:56 AM 39.9 °F 35.8 °F 27.1 °F 60% 30.32 in 9.0 mi NE 5.8 mph - N/A   Partly Cloudy
12:56 PM 39.9 °F 35.1 °F 28.0 °F 63% 30.35 in 9.0 mi ENE 6.9 mph - N/A   Partly Cloudy
1:56 PM 39.9 °F 35.1 °F 29.1 °F 65% 30.33 in 8.0 mi ENE 6.9 mph - N/A   Partly Cloudy
2:56 PM 41.0 °F 35.8 °F 28.0 °F 60% 30.32 in 8.0 mi East 8.1 mph - N/A   Mostly Cloudy
3:56 PM 41.0 °F 35.8 °F 29.1 °F 63% 30.31 in 10.0 mi East 8.1 mph - N/A   Partly Cloudy
4:56 PM 41.9 °F 36.9 °F 30.0 °F 63% 30.31 in 10.0 mi East 8.1 mph - N/A   Clear
5:56 PM 43.9 °F 41.3 °F 29.1 °F 56% 30.28 in 10.0 mi East 4.6 mph - N/A   Partly Cloudy
6:56 PM 45.9 °F 44.6 °F 28.0 °F 50% 30.27 in 10.0 mi SSE 3.5 mph - N/A   Clear
7:56 PM 37.9 °F 32.1 °F 28.0 °F 68% 30.30 in 8.0 mi SE 8.1 mph - N/A   Clear
8:56 PM 36.0 °F 28.5 °F 28.0 °F 73% 30.30 in 9.0 mi East 10.4 mph - N/A   Clear
9:56 PM 36.9 °F 30.7 °F 28.0 °F 70% 30.28 in 9.0 mi SE 8.1 mph - N/A   Clear
11:56 PM 34.0 °F 28.0 °F 27.1 °F 76% 30.26 in 10.0 mi ESE 6.9 mph - N/A   Clear